Location: Tel Aviv
(32.0670°N, 34.7670°E)
Time: 20:44:56
(UTC+03:00)

RS-15 - Visible Passes

Search period start: 20 June 2024 00:00
Search period end: 30 June 2024 00:00
Orbit: 1896 x 2148 km, 64.8° (Epoch: 19 June)

Date Brightness Start Highest point End Pass type
(mag) Time Alt. Az. Time Alt. Az. Time Alt. Az.
20 Jun 9.4 21:45:28 10° NW 21:53:35 25° WSW 22:01:45 10° SSW visible
21 Jun 9.1 21:08:30 10° NW 21:17:55 35° WSW 21:27:25 10° SSW visible
22 Jun 8.7 20:31:56 10° NW 20:42:11 49° WSW 20:52:30 10° S visible
23 Jun 8.4 19:55:36 10° NNW 20:06:22 66° WSW 20:17:08 10° SSE visible
24 Jun 9.8 21:35:40 10° WNW 21:41:07 15° W 21:46:36 10° SW visible
25 Jun 9.7 20:57:43 10° NW 21:05:34 23° WSW 21:13:29 10° SSW visible
26 Jun 9.3 20:20:40 10° NW 20:29:56 34° WSW 20:39:16 10° SSW visible
29 Jun 10.0 20:48:09 10° WNW 20:53:05 14° W 20:58:04 10° SW visible
